Voltar ao catálogo

ATLAS 5 CENTAUR DEB

LostHEO
NORAD 47343·DEBRIS·🇺🇸 United States

Lançado Oct 17, 2018 de Cape Canaveral Space Force Station

Loading…

Próximas Passagens (próximas 24 horas)

TLE

ObsoletoSource: Space-Track

Época: May 10, 2026, 11:14 UTC

1 47343U 18079EQ  26130.46863796 -.00000097  00000-0  00000-0 0  9994
2 47343  12.6879  49.8387 4092391 323.0382  14.7910  1.96310579 35016

Acompanhe ATLAS 5 CENTAUR DEB em tempo real com AllMySat

Download on the App Store